AXM110 WBGG-WMKK

Flight info

Callsign AXM110
Flight time N/A
Altitude 38000
Route AGOBA M761 KILOT/N0440F390 N892 KIBOL/N0391F280 G334 SAROX SAROX2J
Aircraft A20N/M-SDE2E3FGHIRWXY/LB1

Departure

Time 2026-04-30 11:11
Airport Kuching International Airport (WBGG)

Arrival

Time N/A
Airport Kuala Lumpur International Airport (WMKK)
Time Latitude Longitude Altitude Speed Heading
2026-04-30 10:47 1.48656 110.34230 90 ft 0 kts 340°
2026-04-30 11:02 1.48647 110.34233 91 ft 2 kts 338°
2026-04-30 11:03 1.48632 110.34239 90 ft 2 kts 335°
2026-04-30 11:03 1.48617 110.34247 94 ft 2 kts 329°
2026-04-30 11:03 1.48603 110.34256 92 ft 2 kts 317°
2026-04-30 11:04 1.48595 110.34284 92 ft 1 kts 249°
2026-04-30 11:04 1.48596 110.34287 90 ft 0 kts 247°
2026-04-30 11:06 1.48590 110.34273 91 ft 5 kts 246°
2026-04-30 11:06 1.48584 110.34258 91 ft 0 kts 245°
2026-04-30 11:07 1.48577 110.34248 92 ft 4 kts 231°
2026-04-30 11:07 1.48536 110.34238 92 ft 9 kts 155°
2026-04-30 11:07 1.48487 110.34206 92 ft 11 kts 248°
2026-04-30 11:08 1.48455 110.34121 95 ft 15 kts 248°
2026-04-30 11:08 1.48416 110.34021 97 ft 15 kts 250°
2026-04-30 11:08 1.48380 110.33931 97 ft 15 kts 248°
2026-04-30 11:08 1.48341 110.33827 98 ft 16 kts 247°
2026-04-30 11:09 1.48274 110.33784 97 ft 10 kts 165°
2026-04-30 11:09 1.48205 110.33809 98 ft 11 kts 159°
2026-04-30 11:09 1.48160 110.33845 95 ft 6 kts 101°
2026-04-30 11:09 1.48168 110.33881 95 ft 5 kts 69°
2026-04-30 11:10 1.48169 110.33886 95 ft 0 kts 69°
2026-04-30 11:10 1.48171 110.33890 95 ft 7 kts 68°
2026-04-30 11:11 1.48268 110.34130 94 ft 73 kts 68°
2026-04-30 11:11 1.48553 110.34835 86 ft 145 kts 69°
2026-04-30 11:11 1.48983 110.35924 332 ft 181 kts 69°
2026-04-30 11:11 1.49433 110.37195 732 ft 208 kts 70°
2026-04-30 11:12 1.49915 110.38621 1410 ft 219 kts 69°
2026-04-30 11:12 1.50408 110.40067 2327 ft 221 kts 70°
2026-04-30 11:12 1.50948 110.41517 3235 ft 223 kts 67°
2026-04-30 11:12 1.51584 110.42943 4047 ft 229 kts 65°
2026-04-30 11:13 1.52253 110.44454 4459 ft 253 kts 66°
2026-04-30 11:13 1.52953 110.46125 5043 ft 265 kts 67°
2026-04-30 11:13 1.53653 110.47851 5794 ft 269 kts 68°
2026-04-30 11:13 1.54400 110.49580 6568 ft 272 kts 61°
2026-04-30 11:14 1.55562 110.51049 7312 ft 276 kts 40°
2026-04-30 11:14 1.57277 110.51923 8063 ft 281 kts 14°
2026-04-30 11:14 1.59246 110.51937 8810 ft 289 kts 348°
2026-04-30 11:14 1.61171 110.51297 9567 ft 294 kts 340°
2026-04-30 11:15 1.63054 110.50510 10216 ft 300 kts 339°
2026-04-30 11:15 1.65030 110.49670 10549 ft 318 kts 339°
2026-04-30 11:15 1.67125 110.48769 10857 ft 335 kts 336°
2026-04-30 11:15 1.69101 110.47465 11349 ft 346 kts 318°
2026-04-30 11:16 1.70530 110.45538 11937 ft 353 kts 296°
2026-04-30 11:16 1.71405 110.43223 12544 ft 358 kts 288°
2026-04-30 11:16 1.72129 110.40818 13154 ft 363 kts 287°
2026-04-30 11:16 1.72836 110.38401 13772 ft 366 kts 287°
2026-04-30 11:17 1.73565 110.35939 14326 ft 370 kts 287°
2026-04-30 11:17 1.74306 110.33465 14885 ft 373 kts 287°
2026-04-30 11:17 1.75051 110.30996 15432 ft 377 kts 287°
2026-04-30 11:17 1.75816 110.28473 16009 ft 381 kts 287°
2026-04-30 11:18 1.76590 110.25927 16579 ft 384 kts 287°
2026-04-30 11:18 1.78156 110.20789 17667 ft 391 kts 287°
2026-04-30 11:18 1.78952 110.18174 18181 ft 395 kts 287°
2026-04-30 11:19 1.79757 110.15534 18613 ft 398 kts 287°
2026-04-30 11:19 1.80567 110.12877 19042 ft 401 kts 287°
2026-04-30 11:19 1.81374 110.10230 19458 ft 403 kts 287°
2026-04-30 11:19 1.82199 110.07522 19891 ft 406 kts 287°
2026-04-30 11:20 1.83023 110.04819 20313 ft 409 kts 287°
2026-04-30 11:20 1.83849 110.02109 20729 ft 412 kts 287°
2026-04-30 11:20 1.84690 109.99347 21164 ft 414 kts 287°
2026-04-30 11:20 1.85534 109.96579 21596 ft 417 kts 287°
2026-04-30 11:21 1.86372 109.93828 22017 ft 420 kts 287°
2026-04-30 11:21 1.87232 109.91005 22449 ft 423 kts 287°
2026-04-30 11:21 1.88091 109.88187 22881 ft 426 kts 287°
2026-04-30 11:21 1.88958 109.85341 23312 ft 429 kts 287°
2026-04-30 11:22 1.89820 109.82511 23683 ft 432 kts 287°
2026-04-30 11:22 1.90695 109.79629 24043 ft 434 kts 287°
2026-04-30 11:22 1.91394 109.76684 24413 ft 437 kts 279°
2026-04-30 11:22 1.91770 109.73656 24787 ft 439 kts 275°
2026-04-30 11:23 1.91993 109.70630 25161 ft 442 kts 273°
2026-04-30 11:23 1.92139 109.67555 25534 ft 444 kts 272°
2026-04-30 11:23 1.92371 109.61347 26266 ft 449 kts 272°
2026-04-30 11:24 1.92496 109.58220 26621 ft 451 kts 272°
2026-04-30 11:24 1.92632 109.55109 26964 ft 453 kts 272°
2026-04-30 11:24 1.92780 109.51948 27311 ft 455 kts 272°
2026-04-30 11:25 1.93093 109.45616 27985 ft 459 kts 272°
2026-04-30 11:25 1.93254 109.42427 28306 ft 461 kts 272°
2026-04-30 11:25 1.93578 109.35970 28955 ft 465 kts 272°
2026-04-30 11:26 1.93900 109.29519 29575 ft 469 kts 272°
2026-04-30 11:26 1.94063 109.26245 29888 ft 471 kts 272°
2026-04-30 11:26 1.94227 109.22949 30155 ft 473 kts 272°
2026-04-30 11:27 1.94390 109.19653 30408 ft 475 kts 272°
2026-04-30 11:27 1.94552 109.16385 30647 ft 477 kts 272°
2026-04-30 11:27 1.94718 109.13054 30901 ft 478 kts 272°
2026-04-30 11:27 1.94883 109.09727 31192 ft 478 kts 272°
2026-04-30 11:28 1.95209 109.03136 31884 ft 476 kts 272°
2026-04-30 11:28 1.95374 108.99820 32227 ft 475 kts 272°
2026-04-30 11:28 1.95536 108.96555 32540 ft 475 kts 272°
2026-04-30 11:29 1.95699 108.93253 32869 ft 474 kts 272°
2026-04-30 11:29 1.95862 108.89952 33191 ft 474 kts 272°
2026-04-30 11:29 1.96186 108.83408 33790 ft 473 kts 272°
2026-04-30 11:30 1.96511 108.76838 34342 ft 471 kts 272°
2026-04-30 11:30 1.96671 108.73600 34634 ft 470 kts 272°
2026-04-30 11:30 1.96832 108.70334 34917 ft 468 kts 272°
2026-04-30 11:31 1.96991 108.67116 35189 ft 467 kts 272°
2026-04-30 11:31 1.97151 108.63868 35443 ft 466 kts 272°
2026-04-30 11:31 1.97311 108.60624 35695 ft 466 kts 272°
2026-04-30 11:31 1.97469 108.57421 35923 ft 465 kts 272°
2026-04-30 11:32 1.97628 108.54183 36145 ft 465 kts 272°
2026-04-30 11:32 1.97880 108.50957 36361 ft 465 kts 278°
2026-04-30 11:32 1.98523 108.47793 36562 ft 464 kts 283°
2026-04-30 11:33 2.00133 108.41576 36946 ft 465 kts 286°
2026-04-30 11:33 2.01005 108.38461 37070 ft 467 kts 286°
2026-04-30 11:33 2.01898 108.35322 37254 ft 467 kts 287°
2026-04-30 11:33 2.02788 108.32196 37468 ft 466 kts 287°
2026-04-30 11:34 2.03662 108.29117 37678 ft 466 kts 286°
2026-04-30 11:34 2.04543 108.25992 37846 ft 466 kts 286°
2026-04-30 11:34 2.06277 108.19803 37879 ft 461 kts 286°
2026-04-30 11:35 2.07999 108.13637 37881 ft 460 kts 286°
2026-04-30 11:35 2.09708 108.07511 37878 ft 459 kts 286°
2026-04-30 11:36 2.11428 108.01348 37877 ft 459 kts 286°
2026-04-30 11:36 2.13134 107.95238 37880 ft 459 kts 286°
2026-04-30 11:37 2.14855 107.89072 37880 ft 458 kts 286°
2026-04-30 11:37 2.16556 107.82973 37881 ft 458 kts 286°
2026-04-30 11:38 2.18262 107.76838 37878 ft 457 kts 285°
2026-04-30 11:38 2.19956 107.70741 37878 ft 457 kts 285°
2026-04-30 11:39 2.21659 107.64609 37878 ft 457 kts 285°
2026-04-30 11:39 2.23349 107.58528 37881 ft 456 kts 285°
2026-04-30 11:40 2.25051 107.52400 37877 ft 456 kts 285°
2026-04-30 11:40 2.26743 107.46310 37879 ft 456 kts 285°
2026-04-30 11:41 2.28434 107.40221 37878 ft 456 kts 285°
2026-04-30 11:41 2.30132 107.34104 37878 ft 455 kts 285°
2026-04-30 11:42 2.31821 107.28019 37879 ft 455 kts 285°
2026-04-30 11:42 2.33517 107.21911 37875 ft 455 kts 285°
2026-04-30 11:43 2.34926 107.16832 37877 ft 455 kts 285°
2026-04-30 11:43 2.36886 107.09769 37877 ft 455 kts 285°
2026-04-30 11:44 2.38290 107.04685 37874 ft 455 kts 285°
2026-04-30 11:44 2.39976 106.98566 37879 ft 455 kts 285°
2026-04-30 11:45 2.41930 106.91473 37879 ft 455 kts 285°
2026-04-30 11:45 2.43334 106.86378 37876 ft 455 kts 285°
2026-04-30 11:46 2.45009 106.80299 37874 ft 455 kts 285°
2026-04-30 11:46 2.46692 106.74192 37874 ft 455 kts 285°
2026-04-30 11:47 2.48373 106.68086 37873 ft 455 kts 285°
2026-04-30 11:47 2.50046 106.62013 37874 ft 455 kts 285°
2026-04-30 11:48 2.51733 106.55886 37874 ft 455 kts 285°
2026-04-30 11:48 2.53401 106.49810 37872 ft 455 kts 284°
2026-04-30 11:49 2.55075 106.43687 37873 ft 455 kts 284°
2026-04-30 11:49 2.56747 106.37597 37874 ft 455 kts 285°
2026-04-30 11:50 2.58439 106.31482 37874 ft 455 kts 285°
2026-04-30 11:50 2.60125 106.25400 37875 ft 455 kts 285°
2026-04-30 11:51 2.61818 106.19288 37878 ft 455 kts 285°
2026-04-30 11:51 2.63500 106.13212 37875 ft 455 kts 285°
2026-04-30 11:52 2.65192 106.07096 37874 ft 455 kts 285°
2026-04-30 11:52 2.66870 106.01030 37876 ft 455 kts 285°
2026-04-30 11:53 2.68563 105.94908 37873 ft 455 kts 285°
2026-04-30 11:53 2.70243 105.88831 37877 ft 455 kts 285°
2026-04-30 11:54 2.71929 105.82732 37875 ft 455 kts 285°
2026-04-30 11:54 2.73608 105.76657 37871 ft 455 kts 285°
2026-04-30 11:55 2.75294 105.70555 37875 ft 455 kts 285°
2026-04-30 11:55 2.76972 105.64483 37875 ft 455 kts 285°
2026-04-30 11:56 2.78659 105.58378 37875 ft 455 kts 285°
2026-04-30 11:56 2.80338 105.52303 37871 ft 455 kts 285°
2026-04-30 11:57 2.82026 105.46190 37873 ft 455 kts 285°
2026-04-30 11:57 2.83704 105.40114 37875 ft 455 kts 285°
2026-04-30 11:58 2.85394 105.33992 37878 ft 456 kts 285°
2026-04-30 11:58 2.87074 105.27907 37877 ft 456 kts 285°
2026-04-30 11:59 2.88765 105.21780 37875 ft 456 kts 285°
2026-04-30 11:59 2.90451 105.15680 37874 ft 456 kts 285°
2026-04-30 12:00 2.92148 105.09542 37876 ft 456 kts 285°
2026-04-30 12:00 2.93833 105.03445 37873 ft 457 kts 285°
2026-04-30 12:01 2.95520 104.97336 37874 ft 457 kts 285°
2026-04-30 12:01 2.97214 104.91203 37877 ft 457 kts 285°
2026-04-30 12:02 2.98900 104.85097 37877 ft 457 kts 285°
2026-04-30 12:02 3.00596 104.78952 37876 ft 457 kts 285°
2026-04-30 12:03 3.02039 104.69604 37875 ft 455 kts 263°
2026-04-30 12:03 3.01496 104.66542 37876 ft 453 kts 252°
2026-04-30 12:04 3.00351 104.63626 37875 ft 450 kts 240°
2026-04-30 12:04 2.96780 104.58507 37878 ft 449 kts 230°
2026-04-30 12:05 2.92795 104.53677 37879 ft 450 kts 228°
2026-04-30 12:05 2.89342 104.48503 37878 ft 453 kts 245°
2026-04-30 12:05 2.88325 104.45522 37886 ft 454 kts 257°
2026-04-30 12:06 2.87921 104.42390 37877 ft 455 kts 269°
2026-04-30 12:06 2.88243 104.36058 37880 ft 457 kts 275°
2026-04-30 12:07 2.88904 104.29724 37876 ft 457 kts 276°
2026-04-30 12:07 2.89578 104.23421 37879 ft 457 kts 275°
2026-04-30 12:08 2.90206 104.17130 37878 ft 457 kts 275°
2026-04-30 12:08 2.90747 104.10778 37875 ft 457 kts 270°
2026-04-30 12:09 2.90526 104.04462 37879 ft 456 kts 266°
2026-04-30 12:09 2.90149 103.98458 37878 ft 456 kts 265°